Weather History for KELN - November, 2012

Change the Weather History Date:

Tuesday, November 13, 2012

  Actual Average (KYKM) Record (KYKM)
Temperature  
Mean Temperature 37 °F 38 °F  
Max Temperature 39 °F 49 °F 72 °F (1999)
Min Temperature 35 °F 27 °F 5 °F (1959)
Degree Days  
Heating Degree Days 28 27  
Month to date heating degree days 318  
Since 1 July heating degree days 1022  
Cooling Degree Days 0 0  
Month to date cooling degree days 0  
Year to date cooling degree days 472  
Moisture  
Dew Point 32 °F    
Average Humidity 82    
Maximum Humidity 87    
Minimum Humidity 75    
Precipitation  
Precipitation 0.00 in 0.03 in 0.71 in (1966)
Month to date precipitation 0.40  
Year to date precipitation 6.07  
Snow  
Snow 0.00 in 0.10 in 0.10 in (1955)
Month to date snowfall 0.6  
Year to date snowfall 9.3  
Since 1 July snowfall 0.7  
Snow Depth -    
Sea Level Pressure  
Sea Level Pressure 30.23 in    
Wind  
Wind Speed 2 mph (NNE)    
Max Wind Speed 5 mph    
Max Gust Speed -    
Visibility 5 miles    
Events      
T = Trace of Precipitation, MM = Missing Value Source: NWS Daily Summary

Daily Weather History Graph

Daily Weather History Graph

Search for Another Location

Airport or City:

Trip Planner

Search our weather history database for the weather conditions in past years. The results will help you decide how hot, cold, wet, or windy it might be!

Date:

Astronomy

Nov. 13, 2012 Rise Set
Actual Time 7:03 AM PST 4:28 PM PST
Civil Twilight 6:30 AM PST 5:01 PM PST
Nautical Twilight 5:53 AM PST 5:38 PM PST
Astronomical Twilight 5:17 AM PST 6:14 PM PST
Moon 6:49 AM PST (11/13) 4:24 PM PST (11/13)
Length of Visible Light 10h 31m
Length of Day
9h 25m
Waning Crescent, 0% of the Moon is Illuminated
Nov 13
Waning Crescent
Nov 13
New
Nov 20
First Quarter
Nov 28
Full
Dec 6
Last Quarter

Hourly Weather History & Observations

Time (PST) Temp. Windchill Dew Point Humidity Pressure Visibility Wind Dir Wind Speed Gust Speed Precip Events Conditions
12:15 AM 37.4 °F - 32.0 °F 81% 30.25 in 3.0 mi Calm Calm - N/A   Haze
12:22 AM 37.4 °F - 32.0 °F 81% 30.25 in 2.5 mi Calm Calm - N/A   Haze
12:36 AM 37.4 °F 34.9 °F 32.0 °F 81% 30.25 in 1.0 mi NW 3.5 mph - N/A   Haze
12:53 AM 37.0 °F 34.5 °F 32.0 °F 82% 30.29 in 1.2 mi North 3.5 mph - N/A   Haze
1:36 AM 37.4 °F - 32.0 °F 81% 30.25 in 2.5 mi Calm Calm - N/A   Haze
1:53 AM 36.0 °F 33.3 °F 30.9 °F 82% 30.29 in 4.0 mi North 3.5 mph - N/A   Haze
2:53 AM 36.0 °F 32.1 °F 30.9 °F 82% 30.28 in 4.0 mi NNE 4.6 mph - N/A   Haze
3:23 AM 35.6 °F - 32.0 °F 87% 30.24 in 2.5 mi Calm Calm - N/A   Overcast
3:53 AM 35.1 °F 32.2 °F 30.9 °F 85% 30.28 in 2.5 mi NE 3.5 mph - N/A   Overcast
4:25 AM 35.6 °F 31.7 °F 30.2 °F 81% 30.23 in 1.5 mi NNE 4.6 mph - N/A   Haze
4:41 AM 35.6 °F 31.7 °F 30.2 °F 81% 30.24 in 2.0 mi NNE 4.6 mph - N/A   Overcast
4:53 AM 35.1 °F 31.0 °F 30.9 °F 85% 30.27 in 2.0 mi NNE 4.6 mph - N/A   Overcast
5:33 AM 35.6 °F 31.7 °F 30.2 °F 81% 30.23 in 4.0 mi NE 4.6 mph - N/A   Overcast
5:53 AM 35.1 °F - 30.9 °F 85% 30.27 in 3.0 mi Calm Calm - N/A   Overcast
6:03 AM 35.6 °F - 30.2 °F 81% 30.23 in 2.5 mi Calm Calm - N/A   Overcast
6:19 AM 35.6 °F - 30.2 °F 81% 30.23 in 1.8 mi Calm Calm - N/A   Overcast
6:35 AM 35.6 °F - 30.2 °F 81% 30.23 in 2.0 mi Calm Calm - N/A   Haze
6:43 AM 35.6 °F - 30.2 °F 81% 30.23 in 1.5 mi Calm Calm - N/A   Haze
6:53 AM 36.0 °F - 32.0 °F 86% 30.27 in 1.2 mi Calm Calm - N/A   Overcast
7:53 AM 36.0 °F 33.3 °F 30.9 °F 82% 30.27 in 1.2 mi NNE 3.5 mph - N/A   Haze
8:00 AM 35.6 °F 32.8 °F 32.0 °F 87% 30.23 in 1.0 mi NNE 3.5 mph - N/A   Overcast
8:06 AM 35.6 °F 32.8 °F 32.0 °F 87% 30.23 in 2.0 mi NNE 3.5 mph - N/A   Overcast
8:15 AM 35.6 °F 32.8 °F 32.0 °F 87% 30.23 in 3.0 mi North 3.5 mph - N/A   Overcast
8:23 AM 35.6 °F - 30.2 °F 81% 30.23 in 1.8 mi Calm Calm - N/A   Haze
8:32 AM 35.6 °F 32.8 °F 30.2 °F 81% 30.23 in 3.0 mi NNW 3.5 mph - N/A   Haze
8:53 AM 36.0 °F 33.3 °F 30.9 °F 82% 30.27 in 10.0 mi NW 3.5 mph - N/A   Overcast
9:53 AM 36.0 °F - 30.9 °F 82% 30.27 in 10.0 mi Calm Calm - N/A   Overcast
10:53 AM 37.0 °F - 30.9 °F 79% 30.27 in 10.0 mi Calm Calm - N/A   Overcast
11:27 AM 37.4 °F 34.9 °F 32.0 °F 81% 30.21 in 10.0 mi ESE 3.5 mph - N/A   Overcast
11:53 AM 37.9 °F - 32.0 °F 79% 30.25 in 10.0 mi Calm Calm - N/A   Overcast
12:53 PM 39.0 °F 36.8 °F 32.0 °F 76% 30.22 in 10.0 mi East 3.5 mph - N/A   Overcast
1:53 PM 39.0 °F 36.8 °F 32.0 °F 76% 30.21 in 10.0 mi East 3.5 mph - N/A   Overcast
2:53 PM 39.0 °F - 32.0 °F 76% 30.21 in 10.0 mi Calm Calm - N/A   Overcast
3:50 PM 39.2 °F 37.0 °F 32.0 °F 75% 30.16 in 10.0 mi North 3.5 mph - N/A   Overcast
3:53 PM 37.9 °F - 32.0 °F 79% 30.21 in 10.0 mi Calm Calm - N/A   Overcast
4:53 PM 37.9 °F - 33.1 °F 83% 30.20 in 10.0 mi Calm Calm - N/A   Overcast
5:53 PM 37.9 °F - 33.1 °F 83% 30.20 in 8.0 mi Calm Calm - N/A   Overcast
6:53 PM 37.9 °F - 33.1 °F 83% 30.20 in 4.0 mi Calm Calm - N/A   Haze
7:30 PM 37.4 °F - 32.0 °F 81% 30.17 in 2.5 mi Calm Calm - N/A   Haze
7:37 PM 37.4 °F - 32.0 °F 81% 30.17 in 4.0 mi Calm Calm - N/A   Haze
7:53 PM 37.0 °F 33.3 °F 32.0 °F 82% 30.21 in 7.0 mi North 4.6 mph - N/A   Overcast
8:53 PM 37.0 °F - 30.9 °F 79% 30.20 in 10.0 mi Calm Calm - N/A   Overcast
9:53 PM 37.0 °F - 32.0 °F 82% 30.21 in 8.0 mi Calm Calm - N/A   Overcast
10:51 PM 37.4 °F 34.9 °F 32.0 °F 81% 30.17 in 4.0 mi East 3.5 mph - N/A   Haze
10:53 PM 37.0 °F - 32.0 °F 82% 30.21 in 4.0 mi Calm Calm - N/A   Haze
11:34 PM 37.4 °F - 33.8 °F 87% 30.17 in 2.5 mi Calm Calm - N/A   Overcast
11:53 PM 37.0 °F - 33.1 °F 86% 30.21 in 3.0 mi Calm Calm - N/A   Overcast